Theta_e
329 329 327 329 328 325 320 316 314 311 309 306 304 304 304 304 304 305 306 306 310 313 312 310 309 308 307 307 307 307 308 308 309 310 309 309 310 310 311 311 313 314 316
327 326 328 330 324 323 317 315 313 310 306 305 304 303 303 303 303 304 305 304 303 305 305 305 304 304 304 305 306 307 307 307 307 308 308 308 309 309 309 310 311 312 313
326 326 330 326 324 322 316 312 310 306 305 304 303 303 302 302 302 302 303 302 301 299 299 299 300 301 301 302 303 305 305 306 306 306 307 307 307 308 308 309 309 310 311
326 328 327 326 325 319 312 311 308 306 304 303 302 301 302 302 301 301 301 300 300 299 299 298 297 298 299 300 301 303 303 304 304 304 305 305 306 306 307 308 309 309 310
329 329 329 326 324 315 308 309 306 304 303 302 301 300 300 301 301 301 300 300 299 299 298 297 296 295 296 298 299 301 301 301 302 302 303 304 304 305 306 306 307 308 308
330 330 329 325 320 311 309 306 305 303 302 301 301 301 301 301 302 301 300 300 300 298 298 296 296 295 295 294 297 297 298 299 300 301 301 302 303 303 304 305 305 306 307
331 331 327 322 314 312 308 305 304 303 301 301 300 300 301 300 301 301 301 300 300 298 297 296 295 295 294 294 293 294 296 297 298 299 300 301 302 302 303 303 304 304 305
331 330 325 318 310 308 304 304 304 302 301 299 299 298 297 299 299 299 300 301 298 296 296 295 295 294 294 294 293 293 293 294 296 297 298 300 300 301 301 302 303 303 304
330 328 323 315 310 308 305 304 304 304 301 298 297 297 296 297 293 298 298 297 296 296 296 295 294 294 293 293 293 292 291 293 294 296 297 299 299 299 300 301 302 302 303
327 323 317 311 309 306 304 304 303 302 302 299 297 296 295 295 293 292 296 296 295 295 294 294 293 293 293 292 292 292 291 292 293 295 296 297 298 298 299 300 300 301 302
321 319 309 308 307 304 304 303 301 301 300 299 298 296 295 295 294 292 291 292 294 294 293 293 292 292 292 292 291 291 291 292 293 294 295 296 296 297 297 298 299 299 299
311 308 307 307 305 303 303 302 301 299 297 296 295 294 294 293 292 291 289 289 290 291 292 291 291 291 290 290 290 290 291 291 292 292 293 293 294 295 296 297 296 296 296
306 305 305 304 304 302 301 300 299 298 296 295 294 293 293 292 292 292 291 289 288 290 290 290 290 290 289 289 288 289 289 290 290 290 291 292 293 294 294 294 294 294 294
305 304 304 304 302 300 299 298 297 296 295 294 293 293 292 292 292 291 291 290 287 287 289 289 289 288 288 288 287 288 288 288 288 289 290 291 291 291 291 291 292 293 293
303 303 303 301 300 298 298 297 296 295 293 293 292 292 292 291 291 291 290 289 288 287 286 287 288 288 287 286 287 287 288 287 287 288 288 289 290 290 290 291 291 291 292
301 301 301 299 299 296 296 295 294 293 292 292 292 291 291 291 290 290 289 289 288 287 285 287 286 286 286 287 287 287 286 286 286 287 288 289 288 289 289 290 290 290 291
300 300 299 298 297 295 294 293 293 292 291 291 291 291 291 290 290 289 288 288 287 287 285 286 286 286 286 286 285 285 285 285 285 286 287 287 288 288 288 289 289 289 290
299 298 298 295 294 294 293 292 292 291 290 291 290 290 290 290 289 289 288 287 287 286 286 285 285 285 285 285 285 285 285 285 286 285 285 286 286 287 287 287 288 289 289
298 297 295 296 293 292 291 291 290 290 290 290 290 290 290 289 289 288 287 287 286 286 286 286 285 285 285 285 284 284 285 285 284 284 284 284 285 286 287 287 288 287 288
294 294 293 292 291 291 290 290 289 289 290 290 290 289 289 288 288 287 287 287 287 286 286 286 285 284 285 285 285 285 284 284 284 283 283 284 284 285 286 285 285 286 286
293 293 293 291 290 289 289 289 290 289 288 288 288 287 287 287 287 288 288 287 287 286 286 285 284 284 285 285 284 284 283 283 283 283 283 283 284 284 283 283 283 284 285
291 291 291 290 289 289 291 289 287 287 286 285 286 286 286 286 286 286 287 286 287 286 286 285 285 285 284 284 283 283 283 283 283 284 284 284 283 282 282 282 283 284 285
292 292 289 290 293 289 287 286 286 285 284 285 285 285 285 285 286 285 285 286 286 286 286 286 285 284 284 283 283 283 283 284 285 284 283 283 282 282 282 282 283 283 284
289 292 292 287 287 287 286 285 286 284 284 284 284 285 285 285 285 285 286 286 286 285 285 285 284 284 283 283 284 285 284 283 282 282 282 282 282 282 282 282 282 283 284
291 287 287 286 286 286 285 285 285 284 284 283 284 284 284 284 284 285 286 285 285 285 284 283 283 284 284 284 283 283 282 281 281 281 281 281 281 281 281 281 281 282 283
287 286 286 286 286 285 285 285 285 284 284 284 284 284 284 284 284 285 286 285 284 283 283 283 283 283 281 281 281 281 281 281 280 281 281 281 281 281 281 281 281 281 281
Wind_Speed
21 18 16 16 15 12 11 9 8 6 3 2 1 1 1 3 1 1 2 1 3 7 7 7 7 8 8 8 9 9 9 9 9 9 10 11 11 11 12 11 10 9 8
19 22 21 21 19 15 13 12 9 5 3 1 1 1 0 2 1 1 2 1 1 3 3 5 6 7 7 8 9 9 10 9 10 9 10 11 12 12 12 12 11 11 10
22 22 26 24 17 15 14 12 8 5 3 1 2 1 2 1 2 3 4 4 2 3 3 3 5 7 7 9 9 10 10 10 10 11 11 11 12 12 13 13 13 13 12
27 28 27 20 16 16 14 12 8 5 2 0 0 2 2 3 3 4 4 3 2 1 2 4 6 8 7 9 10 11 10 9 11 11 11 12 12 13 14 14 14 14 14
30 27 24 20 20 18 15 11 8 5 3 0 1 2 3 4 6 8 6 5 3 4 4 7 7 7 7 10 11 11 11 11 12 11 11 12 13 14 15 16 16 16 16
28 27 24 22 22 20 17 13 9 7 3 1 2 2 3 2 6 7 6 6 4 5 6 5 5 7 11 14 10 11 13 13 11 11 12 12 14 16 17 17 18 19 20
33 29 26 25 24 22 18 15 13 8 4 2 1 2 5 3 3 5 6 7 6 4 4 5 6 10 16 15 16 14 14 12 12 13 14 14 17 18 19 20 21 21 22
35 32 29 28 26 22 20 17 14 11 5 4 2 2 2 1 3 5 8 8 5 3 5 5 10 14 15 17 19 18 12 12 14 15 15 17 20 22 24 24 24 24 24
36 31 31 31 27 24 23 19 15 12 9 5 4 3 2 3 2 0 6 6 3 3 4 7 9 14 17 17 18 22 17 13 16 16 16 20 23 26 26 25 26 26 27
34 30 33 31 28 24 22 19 16 13 11 10 6 3 2 3 2 3 2 6 5 2 9 15 18 16 14 18 22 19 18 15 17 18 20 24 27 26 27 28 29 28 28
32 33 33 31 28 26 23 21 18 15 12 12 8 5 4 4 3 3 3 4 9 17 20 15 17 21 14 17 18 20 19 17 19 22 24 28 28 29 31 31 30 30 31
33 34 34 32 29 27 25 21 17 14 12 11 9 7 6 4 4 3 2 4 8 12 12 20 14 12 14 17 13 9 11 16 20 23 27 30 31 32 32 30 31 32 33
36 37 36 33 30 28 25 21 18 15 12 10 8 7 6 5 5 5 5 4 4 7 9 12 12 11 15 11 19 18 20 20 23 27 31 32 31 31 30 31 33 34 34
40 38 35 30 28 26 24 19 17 14 12 9 8 6 6 5 5 6 5 4 3 4 9 7 16 11 10 25 30 28 27 26 28 31 31 29 29 30 33 34 33 33 33
36 38 33 30 27 25 22 19 16 14 10 8 6 5 4 4 5 6 6 6 4 3 3 3 7 14 27 28 25 25 26 31 27 30 30 30 31 32 33 31 31 30 31
33 38 33 30 27 23 19 17 15 12 9 7 6 5 5 6 8 9 10 10 9 10 4 10 22 26 27 25 27 25 32 29 32 30 29 29 32 31 31 30 32 33 33
34 36 33 29 27 24 21 17 13 10 8 7 5 5 6 7 9 10 8 11 14 14 10 17 20 23 25 29 30 32 34 31 31 27 31 31 30 29 33 33 34 34 35
33 34 31 30 26 21 18 15 12 9 7 6 5 6 8 8 11 10 12 13 13 13 16 17 21 23 26 28 31 34 32 30 29 31 29 27 31 32 33 35 34 33 35
31 29 31 25 24 21 16 13 9 6 5 4 5 7 8 9 12 13 13 13 14 18 21 23 23 24 26 28 31 28 27 29 30 28 28 31 31 33 30 31 33 34 33
29 26 25 24 20 17 14 10 6 5 3 6 5 7 8 10 12 12 12 16 18 18 20 23 21 22 23 27 27 22 27 27 29 30 32 31 30 29 32 32 32 33 32
27 26 20 15 13 11 10 7 3 3 5 6 6 8 9 9 11 13 15 15 16 19 20 20 17 19 23 21 22 25 25 29 32 33 32 28 29 29 36 31 31 31 30
28 24 21 14 12 7 5 4 3 2 4 7 8 9 10 13 14 12 14 18 18 21 21 20 18 19 23 23 25 24 27 26 12 25 16 30 31 30 34 31 30 32 35
20 19 17 13 7 5 6 2 1 3 5 7 9 12 14 14 13 16 17 18 20 20 21 25 24 24 25 26 31 29 26 24 23 30 31 32 31 30 33 32 32 36 37
21 15 13 12 9 5 3 1 2 5 6 8 9 11 12 15 16 18 20 22 18 23 24 23 25 29 29 28 26 27 28 27 27 30 28 22 30 32 33 33 35 37 33
16 14 11 10 6 6 3 1 5 8 10 11 10 12 15 16 16 17 21 24 26 23 22 23 26 25 25 28 28 25 24 21 20 26 27 24 29 30 30 36 31 26 25
13 10 8 6 5 2 2 2 5 9 12 14 13 15 17 17 18 19 22 24 18 24 28 27 24 29 30 28 23 23 25 21 23 17 18 11 25 22 9 23 20 29 34
Wind_Direction
187 198 193 175 174 171 166 157 163 166 179 159 134 12 87 99 276 134 94 90 154 115 94 80 68 56 49 37 27 18 11 5 359 355 357 352 350 347 344 345 340 332 329
207 200 198 186 179 181 169 180 192 195 193 184 122 79 63 141 172 239 139 120 149 145 107 77 60 42 32 21 12 8 2 358 356 349 342 343 342 339 338 332 329 323 312
199 199 182 180 186 181 181 187 185 181 197 181 140 151 175 218 181 194 161 142 135 105 87 49 17 8 10 10 4 1 357 353 348 345 341 336 338 335 333 330 322 318 309
202 185 183 189 188 181 186 188 181 175 173 189 202 179 185 181 172 187 178 176 195 257 343 334 344 358 359 359 354 350 349 349 346 344 340 339 338 333 331 325 321 316 309
195 196 196 197 188 183 186 188 175 187 178 219 220 193 205 252 200 187 206 219 259 287 315 329 330 335 350 349 342 342 338 339 339 341 339 338 338 334 329 325 320 314 308
199 202 204 196 186 184 184 177 169 158 143 356 150 210 189 135 162 191 205 218 248 268 299 320 306 318 325 329 331 333 330 327 327 330 331 333 332 328 323 317 312 306 301
202 207 201 190 186 189 183 176 162 152 112 44 134 121 177 167 192 202 207 218 247 234 296 290 296 314 320 326 327 327 322 317 320 320 319 322 325 324 321 315 309 304 300
203 204 196 188 187 182 178 175 173 154 132 77 131 101 32 273 239 224 223 221 227 252 275 276 310 319 323 321 321 322 313 307 312 312 310 314 320 319 316 311 306 302 298
200 198 193 189 189 189 181 179 179 174 156 125 101 153 102 215 312 312 207 204 204 284 271 312 325 321 318 315 313 320 311 305 307 306 304 309 312 312 310 307 303 300 296
196 193 189 191 189 188 182 178 178 179 170 156 142 121 116 139 156 328 222 204 302 257 314 309 310 315 318 310 312 311 301 301 305 303 302 307 310 308 306 303 300 298 296
189 185 189 190 189 185 180 177 174 172 177 165 169 160 172 186 203 153 265 286 274 292 301 305 310 311 323 319 312 306 296 295 301 302 302 306 307 305 303 300 297 297 294
180 182 189 192 186 183 180 175 173 167 169 164 164 170 180 175 181 184 231 272 279 311 303 311 322 323 326 328 327 319 312 304 301 299 300 302 300 300 297 296 295 294 293
177 181 187 188 184 184 177 174 170 165 173 169 168 175 186 203 217 236 247 272 271 300 302 312 308 311 314 325 330 325 315 308 305 301 300 299 298 297 296 295 294 292 290
174 182 186 186 182 179 172 171 168 168 177 176 178 188 201 224 245 256 254 256 302 264 283 276 304 314 317 318 314 313 308 309 309 304 300 298 296 297 296 294 292 292 290
175 180 182 180 179 176 172 170 171 171 179 178 184 199 226 245 256 265 268 274 241 287 287 293 294 301 318 319 314 309 304 307 305 303 300 297 296 297 295 294 291 291 289
173 177 179 179 172 174 167 170 171 174 180 181 199 218 243 260 268 274 281 281 276 270 259 286 300 309 316 314 312 306 308 304 301 300 300 298 299 296 295 293 294 292 291
173 178 176 174 174 170 168 172 172 177 182 186 209 243 262 263 274 280 276 282 289 289 274 293 302 310 309 311 309 309 308 308 305 302 303 300 299 298 297 295 295 292 291
171 173 172 172 169 164 169 168 168 184 192 204 228 252 266 272 275 280 287 289 290 288 294 298 304 305 305 307 305 306 308 304 299 298 301 299 300 298 296 295 293 291 294
168 171 171 167 168 162 161 163 172 189 218 233 261 274 280 276 281 289 285 285 287 294 297 291 291 298 300 306 305 301 299 298 297 297 298 299 297 297 296 295 295 293 291
151 154 163 163 161 155 157 162 163 189 216 265 273 285 288 287 291 292 292 295 298 292 289 290 290 298 301 306 301 298 302 301 299 298 296 295 295 293 295 295 294 292 291
144 150 146 153 157 147 153 150 186 248 258 276 292 298 299 297 294 293 297 304 305 302 296 298 288 294 302 306 303 303 297 300 298 300 296 292 294 294 293 292 292 294 294
142 145 149 149 156 161 183 164 176 270 305 319 321 321 311 304 301 297 297 297 295 297 298 299 292 295 300 298 299 297 295 297 301 307 297 296 297 291 291 290 293 294 292
143 144 153 162 180 161 179 114 59 332 336 336 334 326 317 314 305 303 302 297 294 291 291 297 297 290 290 295 297 292 286 281 287 295 300 294 297 289 291 290 291 292 290
154 165 163 153 156 174 150 109 317 349 352 344 334 333 333 326 318 312 305 303 302 301 305 299 294 294 294 296 293 297 301 299 295 293 293 288 297 290 293 289 290 289 288
156 167 151 143 142 163 194 349 343 354 353 342 332 325 324 323 322 312 307 307 308 306 305 300 299 297 298 300 301 303 298 302 296 295 295 286 292 292 294 288 290 290 286
148 138 132 127 150 141 164 331 338 335 340 339 329 326 328 319 312 309 308 312 309 313 316 313 308 306 309 310 302 297 295 286 288 299 302 296 297 304 299 291 285 290 293